Maastricht, Netherlands

12:15 AM CEST on October 01, 2016 (GMT +0200)
Maastricht-Aachen

Weather History for EHBK - May, 2014

Change the Weather History Date:

Sunday, May 11, 2014

  Actual Average Record
Temperature  
Mean Temperature 52 °F -  
Max Temperature 58 °F 64 °F 86 °F (1998)
Min Temperature 47 °F 48 °F 37 °F (2005)
Degree Days  
Heating Degree Days 12    
Growing Degree Days 2 (Base 50)    
Moisture  
Dew Point 42 °F    
Average Humidity 66    
Maximum Humidity 82    
Minimum Humidity 46    
Precipitation  
Precipitation 0.04 in - - ()
Sea Level Pressure  
Sea Level Pressure 29.67 in    
Wind  
Wind Speed 19 mph ()    
Max Wind Speed 28 mph    
Max Gust Speed 40 mph    
Visibility 8.8 miles    
Events Rain    
Averages and records for this station are not official NWS values.
T = Trace of Precipitation, MM = Missing Value Source: Averaged Metar Reports

Daily Weather History Graph

Daily Weather History Graph

Search for Another Location

Airport or City:

Trip Planner

Search our weather history database for the weather conditions in past years. The results will help you decide how hot, cold, wet, or windy it might be!

Date:

Astronomy

May. 11, 2014 Rise Set
Actual Time 5:53 AM CEST 9:13 PM CEST
Civil Twilight 5:14 AM CEST 9:53 PM CEST
Nautical Twilight 4:21 AM CEST 10:46 PM CEST
Astronomical Twilight 3:11 AM CEST 11:58 PM CEST
Moon 5:31 PM CEST (5/11) 4:15 AM CEST (5/11)
Length of Visible Light 16h 39m
Length of Day
15h 19m
Waxing Gibbous, 87% of the Moon is Illuminated
May 11
Waxing Gibbous
May 14
Full
May 21
Last Quarter
May 28
New
Jun 5
First Quarter

Hourly Weather History & Observations

Time (CEST) Temp. Dew Point Humidity Pressure Visibility Wind Dir Wind Speed Gust Speed Precip Events Conditions
12:00 AM 50 °F 42 °F 67% 29.70 in 13 mi SW 17.9 mph - -   Partly Cloudy
12:25 AM 50.0 °F 42.8 °F 76% 29.68 in 6.2 mi SW 18.4 mph - N/A   Mostly Cloudy
12:55 AM 50.0 °F 42.8 °F 76% 29.68 in 6.2 mi SW 23.0 mph - N/A   Mostly Cloudy
1:00 AM 50 °F 42 °F 67% 29.69 in 12 mi SW 22.4 mph - -   Overcast
1:25 AM 50.0 °F 42.8 °F 76% 29.68 in 6.2 mi SW 21.9 mph - N/A   Mostly Cloudy
1:55 AM 50.0 °F 42.8 °F 76% 29.68 in 6.2 mi SW 20.7 mph 32.2 mph N/A   Mostly Cloudy
2:00 AM 50 °F 42 °F 67% 29.68 in 13 mi SW 22.4 mph - -   Partly Cloudy
2:25 AM 48.2 °F 42.8 °F 82% 29.65 in 6.2 mi SW 20.7 mph - N/A   Mostly Cloudy
2:55 AM 50.0 °F 42.8 °F 76% 29.65 in 6.2 mi SW 18.4 mph - N/A   Mostly Cloudy
3:00 AM 49 °F 42 °F 69% 29.68 in 12 mi SW 20.1 mph - -   Partly Cloudy
3:25 AM 48.2 °F 42.8 °F 82% 29.65 in 6.2 mi SW 19.6 mph - N/A   Unknown
3:55 AM 48.2 °F 42.8 °F 82% 29.65 in 6.2 mi SW 18.4 mph - N/A   Overcast
4:00 AM 49 °F 42 °F 69% 29.66 in 12 mi SW 20.1 mph - -   Overcast
4:25 AM 48.2 °F 42.8 °F 82% 29.65 in 6.2 mi SW 21.9 mph - N/A   Overcast
4:55 AM 48.2 °F 41.0 °F 76% 29.65 in 6.2 mi SW 21.9 mph - N/A   Partly Cloudy
5:00 AM 48 °F 41 °F 69% 29.66 in 11 mi SW 20.1 mph - -   Scattered Clouds
5:25 AM 48.2 °F 41.0 °F 76% 29.62 in 6.2 mi SW 18.4 mph - N/A   Overcast
5:55 AM 48.2 °F 41.0 °F 76% 29.62 in 6.2 mi SW 19.6 mph 34.5 mph N/A   Overcast
6:00 AM 48 °F 41 °F 70% 29.65 in 12 mi SW 22.4 mph - -   Overcast
6:25 AM 48.2 °F 41.0 °F 76% 29.62 in 6.2 mi SW 20.7 mph - N/A   Mostly Cloudy
6:55 AM 48.2 °F 41.0 °F 76% 29.62 in 6.2 mi SW 23.0 mph - N/A   Overcast
7:00 AM 48 °F 42 °F 71% 29.66 in 11 mi SW 22.4 mph - -   Overcast
7:25 AM 48.2 °F 41.0 °F 76% 29.65 in 6.2 mi SW 20.7 mph - N/A   Mostly Cloudy
7:55 AM 50.0 °F 41.0 °F 71% 29.65 in 6.2 mi SW 18.4 mph - N/A   Overcast
8:00 AM 49 °F 41 °F 67% 29.66 in 12 mi SW 20.1 mph - -   Partly Cloudy
8:25 AM 50.0 °F 41.0 °F 71% 29.65 in 6.2 mi SW 20.7 mph 34.5 mph N/A   Overcast
8:55 AM 50.0 °F 41.0 °F 71% 29.65 in 6.2 mi SW 23.0 mph - N/A   Mostly Cloudy
9:00 AM 50 °F 41 °F 63% 29.66 in 14 mi SW 20.1 mph - -   Overcast
9:25 AM 50.0 °F 41.0 °F 71% 29.65 in 6.2 mi SW 23.0 mph 39.1 mph N/A   Overcast
9:55 AM 51.8 °F 41.0 °F 67% 29.65 in 6.2 mi SW 25.3 mph 36.8 mph N/A   Mostly Cloudy
10:00 AM 52 °F 40 °F 54% 29.67 in 12 mi SW 24.6 mph - -   Partly Cloudy
10:25 AM 51.8 °F 41.0 °F 67% 29.65 in 6.2 mi SW 20.7 mph 32.2 mph N/A   Mostly Cloudy
10:55 AM 51.8 °F 39.2 °F 62% 29.65 in 6.2 mi SW 26.5 mph 40.3 mph N/A   Mostly Cloudy
11:00 AM 52 °F 41 °F 57% 29.67 in 16 mi SW 24.6 mph - -   Partly Cloudy
11:25 AM 53.6 °F 41.0 °F 62% 29.65 in 6.2 mi SW 24.2 mph 38.0 mph N/A   Mostly Cloudy
11:55 AM 53.6 °F 41.0 °F 62% 29.65 in 6.2 mi SW 27.6 mph 40.3 mph N/A   Mostly Cloudy
12:00 PM 55 °F 41 °F 49% 29.66 in 22 mi SW 26.8 mph - -   Overcast
12:25 PM 55.4 °F 41.0 °F 58% 29.65 in 6.2 mi SW 27.6 mph 40.3 mph N/A   Scattered Clouds
12:55 PM 51.8 °F 44.6 °F 76% 29.65 in 6.2 mi WSW 20.7 mph 32.2 mph N/A   Scattered Clouds
1:00 PM 54 °F 43 °F 58% 29.66 in 16 mi SW 20.1 mph - - Rain Rain
1:25 PM 55.4 °F 41.0 °F 58% 29.65 in 6.2 mi SW 26.5 mph 39.1 mph N/A   Mostly Cloudy
1:55 PM 57.2 °F 42.8 °F 59% 29.65 in 6.2 mi SW 23.0 mph 36.8 mph N/A   Mostly Cloudy
2:00 PM 56 °F 42 °F 48% 29.65 in 17 mi WSW 22.4 mph - -   Partly Cloudy
2:25 PM 57.2 °F 41.0 °F 55% 29.62 in 6.2 mi WSW 23.0 mph 34.5 mph N/A   Partly Cloudy
2:55 PM 50.0 °F 44.6 °F 82% 29.65 in 6.2 mi West 13.8 mph 31.1 mph N/A Rain Light Rain Showers
3:00 PM 52 °F 47 °F 76% 29.67 in 19 mi WSW 11.2 mph - - Rain Rain
3:25 PM 55.4 °F 44.6 °F 67% 29.65 in 6.2 mi WSW 16.1 mph - N/A   Partly Cloudy
3:55 PM 55.4 °F 42.8 °F 63% 29.65 in 6.2 mi WSW 19.6 mph 33.4 mph N/A   Partly Cloudy
4:00 PM 56 °F 43 °F 51% 29.67 in 17 mi WSW 17.9 mph - - Rain Rain
4:25 PM 55.4 °F 42.8 °F 63% 29.65 in 6.2 mi WSW 18.4 mph 31.1 mph N/A   Mostly Cloudy
4:55 PM 55.4 °F 41.0 °F 58% 29.65 in 6.2 mi WSW 15.0 mph 32.2 mph N/A   Overcast
5:00 PM 55 °F 40 °F 46% 29.69 in 15 mi WSW 15.7 mph - -   Partly Cloudy
5:25 PM 55.4 °F 41.0 °F 58% 29.68 in 6.2 mi WSW 16.1 mph - N/A   Mostly Cloudy
5:55 PM 53.6 °F 41.0 °F 62% 29.68 in 6.2 mi WSW 13.8 mph 29.9 mph N/A   Overcast
6:00 PM 54 °F 41 °F 52% 29.70 in 16 mi WSW 11.2 mph - -   Partly Cloudy
6:25 PM 53.6 °F 41.0 °F 62% 29.68 in 6.2 mi WSW 17.3 mph - N/A   Mostly Cloudy
6:55 PM 53.6 °F 41.0 °F 62% 29.68 in 6.2 mi WSW 16.1 mph - N/A   Overcast
7:00 PM 54 °F 41 °F 51% 29.71 in 18 mi WSW 15.7 mph - -   Partly Cloudy
7:25 PM 53.6 °F 41.0 °F 62% 29.68 in 6.2 mi WSW 16.1 mph - N/A Rain Light Rain
7:55 PM 53.6 °F 41.0 °F 62% 29.71 in 6.2 mi WSW 18.4 mph 29.9 mph N/A Rain Light Rain
8:00 PM 53 °F 41 °F 54% 29.72 in 15 mi WSW 15.7 mph - - Rain Rain
8:25 PM 53.6 °F 41.0 °F 62% 29.71 in 6.2 mi WSW 16.1 mph - N/A   Partly Cloudy
8:55 PM 53.6 °F 41.0 °F 62% 29.71 in 6.2 mi WSW 17.3 mph - N/A   Unknown
9:00 PM 53 °F 41 °F 53% 29.73 in 17 mi WSW 17.9 mph - -   Overcast
9:25 PM 51.8 °F 41.0 °F 67% 29.71 in 6.2 mi WSW 17.3 mph - N/A   Partly Cloudy
9:55 PM 51.8 °F 41.0 °F 67% 29.74 in 6.2 mi WSW 16.1 mph - N/A   Unknown
10:00 PM 52 °F 41 °F 57% 29.75 in 15 mi WSW 15.7 mph - -   Overcast
10:25 PM 51.8 °F 41.0 °F 67% 29.74 in 6.2 mi WSW 16.1 mph - N/A   Unknown
10:55 PM 51.8 °F 41.0 °F 67% 29.74 in 6.2 mi WSW 15.0 mph - N/A   Unknown
11:00 PM 51 °F 41 °F 60% 29.76 in 13 mi SW 17.9 mph - -   Overcast
11:25 PM 51.8 °F 41.0 °F 67% 29.74 in 6.2 mi WSW 18.4 mph - N/A   Unknown
11:55 PM 50.0 °F 41.0 °F 71% 29.74 in 6.2 mi SW 18.4 mph - N/A   Partly Cloudy